Time,TemperatureF,DewpointF,PressureIn,WindDirection,WindDirectionDegrees,WindSpeedMPH,WindSpeedGustMPH,Humidity,HourlyPrecipIn,Conditions,Clouds,dailyrainin,SoftwareType,DateUTC
2013-04-24 00:01:00,28.0,25.0,30.01,NW,319,0.0,-999.0,90,-99.99,,,-99.99,,2013-04-24 04:01:00,
2013-04-24 00:12:00,28.0,26.0,30.00,NW,319,0.0,-999.0,91,-99.99,,,-99.99,,2013-04-24 04:12:00,
2013-04-24 00:23:00,27.0,25.0,30.00,NW,319,0.0,-999.0,91,-99.99,,,-99.99,,2013-04-24 04:23:00,
2013-04-24 00:33:00,27.0,25.0,30.00,NW,319,0.0,-999.0,91,-99.99,,,-99.99,,2013-04-24 04:33:00,
2013-04-24 00:43:00,27.0,25.0,30.00,NW,319,0.0,-999.0,91,-99.99,,,-99.99,,2013-04-24 04:43:00,
2013-04-24 00:53:00,27.0,25.0,30.00,NW,319,0.0,-999.0,91,-99.99,,,-99.99,,2013-04-24 04:53:00,
2013-04-24 01:02:00,27.0,25.0,30.00,NW,319,0.0,-999.0,92,-99.99,,,-99.99,,2013-04-24 05:02:00,
2013-04-24 01:12:00,27.0,25.0,30.00,NW,319,0.0,-999.0,92,-99.99,,,-99.99,,2013-04-24 05:12:00,
2013-04-24 01:22:00,27.0,25.0,30.00,NW,319,0.0,-999.0,92,-99.99,,,-99.99,,2013-04-24 05:22:00,
2013-04-24 01:32:00,26.0,24.0,29.99,NW,319,0.0,-999.0,92,-99.99,,,-99.99,,2013-04-24 05:32:00,
2013-04-24 01:42:00,26.0,24.0,29.99,NW,319,0.0,-999.0,92,-99.99,,,-99.99,,2013-04-24 05:42:00,
2013-04-24 01:52:00,26.0,24.0,29.99,NW,319,0.0,-999.0,92,-99.99,,,-99.99,,2013-04-24 05:52:00,
2013-04-24 02:02:00,26.0,24.0,29.99,NW,319,0.0,-999.0,91,-99.99,,,-99.99,,2013-04-24 06:02:00,
2013-04-24 02:12:00,26.0,24.0,29.99,NW,319,0.0,-999.0,91,-99.99,,,-99.99,,2013-04-24 06:12:00,
2013-04-24 02:21:00,25.0,23.0,29.99,NW,319,0.0,-999.0,91,-99.99,,,-99.99,,2013-04-24 06:21:00,
2013-04-24 02:32:00,24.0,22.0,29.99,NW,319,0.0,-999.0,92,-99.99,,,-99.99,,2013-04-24 06:32:00,
2013-04-24 02:42:00,24.0,22.0,29.99,NW,319,0.0,-999.0,92,-99.99,,,-99.99,,2013-04-24 06:42:00,
2013-04-24 02:52:00,23.0,21.0,29.99,NW,319,0.0,-999.0,91,-99.99,,,-99.99,,2013-04-24 06:52:00,
2013-04-24 03:02:00,23.0,21.0,29.99,NW,319,0.0,-999.0,92,-99.99,,,-99.99,,2013-04-24 07:02:00,
2013-04-24 03:11:00,23.0,21.0,29.99,NW,319,0.0,-999.0,92,-99.99,,,-99.99,,2013-04-24 07:11:00,
2013-04-24 03:22:00,22.0,20.0,29.98,NW,319,0.0,-999.0,92,-99.99,,,-99.99,,2013-04-24 07:22:00,
2013-04-24 03:32:00,22.0,20.0,29.98,NW,320,0.0,-999.0,92,-99.99,,,-99.99,,2013-04-24 07:32:00,
2013-04-24 03:42:00,22.0,20.0,29.98,NW,320,0.0,-999.0,92,-99.99,,,-99.99,,2013-04-24 07:42:00,
2013-04-24 03:52:00,22.0,20.0,29.98,NW,319,0.0,-999.0,93,-99.99,,,-99.99,,2013-04-24 07:52:00,
2013-04-24 04:01:00,22.0,20.0,29.98,NW,319,0.0,-999.0,93,-99.99,,,-99.99,,2013-04-24 08:01:00,
2013-04-24 04:12:00,22.0,20.0,29.98,NW,319,0.0,-999.0,93,-99.99,,,-99.99,,2013-04-24 08:12:00,
2013-04-24 04:21:00,21.0,19.0,29.98,NW,319,0.0,-999.0,92,-99.99,,,-99.99,,2013-04-24 08:21:00,
2013-04-24 04:33:00,20.0,18.0,29.98,NW,319,0.0,-999.0,92,-99.99,,,-99.99,,2013-04-24 08:33:00,
2013-04-24 04:42:00,20.0,18.0,29.98,NW,319,0.0,-999.0,92,-99.99,,,-99.99,,2013-04-24 08:42:00,
2013-04-24 04:52:00,20.0,18.0,29.98,NW,320,0.0,-999.0,92,-99.99,,,-99.99,,2013-04-24 08:52:00,
2013-04-24 05:02:00,19.0,17.0,29.98,NW,320,0.0,-999.0,93,-99.99,,,-99.99,,2013-04-24 09:02:00,
2013-04-24 05:11:00,19.0,17.0,29.98,NW,320,0.0,-999.0,93,-99.99,,,-99.99,,2013-04-24 09:11:00,
2013-04-24 05:21:00,19.0,17.0,29.97,NW,320,0.0,-999.0,93,-99.99,,,-99.99,,2013-04-24 09:21:00,
2013-04-24 05:33:00,19.0,17.0,29.97,NW,319,0.0,-999.0,92,-99.99,,,-99.99,,2013-04-24 09:33:00,
2013-04-24 05:42:00,19.0,17.0,29.97,NW,319,0.0,-999.0,92,-99.99,,,-99.99,,2013-04-24 09:42:00,
2013-04-24 05:53:00,19.0,17.0,29.98,NW,319,0.0,-999.0,92,-99.99,,,-99.99,,2013-04-24 09:53:00,
2013-04-24 06:02:00,18.0,16.0,29.98,NW,319,0.0,-999.0,92,-99.99,,,-99.99,,2013-04-24 10:02:00,
2013-04-24 06:12:00,18.0,16.0,29.98,NW,319,0.0,-999.0,92,-99.99,,,-99.99,,2013-04-24 10:12:00,
2013-04-24 06:22:00,18.0,16.0,29.98,NW,320,0.0,-999.0,92,-99.99,,,-99.99,,2013-04-24 10:22:00,
2013-04-24 06:32:00,18.0,16.0,29.98,NW,319,0.0,-999.0,93,-99.99,,,-99.99,,2013-04-24 10:32:00,
2013-04-24 06:42:00,18.0,16.0,29.98,NW,319,0.0,-999.0,93,-99.99,,,-99.99,,2013-04-24 10:42:00,
2013-04-24 06:53:00,18.0,16.0,29.98,NW,320,0.0,-999.0,92,-99.99,,,-99.99,,2013-04-24 10:53:00,
2013-04-24 07:02:00,18.0,16.0,29.98,NW,319,0.0,-999.0,92,-99.99,,,-99.99,,2013-04-24 11:02:00,
2013-04-24 07:11:00,18.0,16.0,29.98,NW,319,0.0,-999.0,92,-99.99,,,-99.99,,2013-04-24 11:11:00,
2013-04-24 07:21:00,17.0,15.0,29.98,NW,320,0.0,-999.0,92,-99.99,,,-99.99,,2013-04-24 11:21:00,
2013-04-24 07:32:00,17.0,15.0,29.98,NW,319,0.0,-999.0,92,-99.99,,,-99.99,,2013-04-24 11:32:00,
2013-04-24 07:42:00,17.0,15.0,29.98,NW,319,0.0,-999.0,92,-99.99,,,-99.99,,2013-04-24 11:42:00,
2013-04-24 07:52:00,18.0,16.0,29.98,NW,319,0.0,-999.0,92,-99.99,,,-99.99,,2013-04-24 11:52:00,
2013-04-24 08:02:00,19.0,18.0,29.99,NW,319,0.0,-999.0,94,-99.99,,,-99.99,,2013-04-24 12:02:00,
2013-04-24 08:11:00,19.0,18.0,29.99,NW,319,0.0,-999.0,94,-99.99,,,-99.99,,2013-04-24 12:11:00,
2013-04-24 08:22:00,21.0,20.0,29.98,NW,319,0.0,-999.0,94,-99.99,,,-99.99,,2013-04-24 12:22:00,
2013-04-24 08:32:00,24.0,23.0,29.98,NW,319,0.0,-999.0,95,-99.99,,,-99.99,,2013-04-24 12:32:00,
2013-04-24 08:42:00,24.0,23.0,29.98,NW,319,0.0,-999.0,95,-99.99,,,-99.99,,2013-04-24 12:42:00,
2013-04-24 08:52:00,27.0,24.0,29.98,NW,319,0.0,-999.0,88,-99.99,,,-99.99,,2013-04-24 12:52:00,
2013-04-24 09:01:00,29.0,24.0,29.98,NW,319,1.0,-999.0,82,-99.99,,,-99.99,,2013-04-24 13:01:00,
2013-04-24 09:12:00,29.0,24.0,29.98,NW,319,1.0,-999.0,82,-99.99,,,-99.99,,2013-04-24 13:12:00,
2013-04-24 09:22:00,31.0,25.0,29.98,NW,318,1.0,-999.0,79,-99.99,,,-99.99,,2013-04-24 13:22:00,
2013-04-24 09:31:00,33.0,25.0,29.98,NW,311,1.0,-999.0,73,-99.99,,,-99.99,,2013-04-24 13:31:00,
2013-04-24 09:41:00,33.0,25.0,29.98,NW,311,1.0,-999.0,73,-99.99,,,-99.99,,2013-04-24 13:41:00,
2013-04-24 09:52:00,35.0,27.0,29.98,WNW,302,1.0,-999.0,71,-99.99,,,-99.99,,2013-04-24 13:52:00,
2013-04-24 10:01:00,36.0,26.0,29.98,NW,306,2.0,-999.0,67,-99.99,,,-99.99,,2013-04-24 14:01:00,
2013-04-24 10:11:00,36.0,26.0,29.98,NW,306,2.0,-999.0,67,-99.99,,,-99.99,,2013-04-24 14:11:00,
2013-04-24 10:21:00,37.0,27.0,29.98,West,279,1.0,-999.0,66,-99.99,,,-99.99,,2013-04-24 14:21:00,
2013-04-24 10:32:00,37.0,26.0,29.98,WSW,249,2.0,-999.0,65,-99.99,,,-99.99,,2013-04-24 14:32:00,
2013-04-24 10:41:00,37.0,26.0,29.98,WSW,249,2.0,-999.0,65,-99.99,,,-99.99,,2013-04-24 14:41:00,
2013-04-24 10:52:00,38.0,26.0,29.98,WSW,257,3.0,-999.0,62,-99.99,,,-99.99,,2013-04-24 14:52:00,
2013-04-24 11:01:00,39.0,24.0,29.98,North,351,2.0,-999.0,54,-99.99,,,-99.99,,2013-04-24 15:01:00,
2013-04-24 11:11:00,39.0,24.0,29.98,North,351,2.0,-999.0,54,-99.99,,,-99.99,,2013-04-24 15:11:00,
2013-04-24 11:21:00,40.0,20.0,29.98,NW,319,2.0,-999.0,44,-99.99,,,-99.99,,2013-04-24 15:21:00,
2013-04-24 11:33:00,40.0,19.0,29.97,WSW,248,2.0,-999.0,43,-99.99,,,-99.99,,2013-04-24 15:33:00,
2013-04-24 11:42:00,40.0,19.0,29.97,WSW,248,2.0,-999.0,43,-99.99,,,-99.99,,2013-04-24 15:42:00,
2013-04-24 11:53:00,40.0,19.0,29.97,WSW,245,3.0,-999.0,43,-99.99,,,-99.99,,2013-04-24 15:53:00,
2013-04-24 12:03:00,41.0,21.0,29.96,WSW,258,3.0,-999.0,44,-99.99,,,-99.99,,2013-04-24 16:03:00,
2013-04-24 12:12:00,41.0,21.0,29.96,WSW,258,3.0,-999.0,44,-99.99,,,-99.99,,2013-04-24 16:12:00,
2013-04-24 12:23:00,41.0,20.0,29.96,WNW,295,3.0,-999.0,42,-99.99,,,-99.99,,2013-04-24 16:23:00,
2013-04-24 12:32:00,42.0,20.0,29.96,WSW,250,5.0,-999.0,41,-99.99,,,-99.99,,2013-04-24 16:32:00,
2013-04-24 12:42:00,42.0,20.0,29.96,WSW,250,5.0,-999.0,41,-99.99,,,-99.99,,2013-04-24 16:42:00,
2013-04-24 12:52:00,42.0,19.0,29.95,WSW,250,3.0,-999.0,39,-99.99,,,-99.99,,2013-04-24 16:52:00,
2013-04-24 13:02:00,42.0,19.0,29.95,WSW,250,3.0,-999.0,39,-99.99,,,-99.99,,2013-04-24 17:02:00,
2013-04-24 13:12:00,42.0,19.0,29.95,WSW,250,3.0,-999.0,39,-99.99,,,-99.99,,2013-04-24 17:12:00,
2013-04-24 13:22:00,42.0,19.0,29.95,WSW,250,3.0,-999.0,39,-99.99,,,-99.99,,2013-04-24 17:22:00,
2013-04-24 18:22:00,45.0,22.0,29.92,WSW,252,1.0,-999.0,40,-99.99,,,-99.99,,2013-04-24 22:22:00,
2013-04-24 18:33:00,45.0,23.0,29.92,West,263,1.0,-999.0,41,-99.99,,,-99.99,,2013-04-24 22:33:00,
2013-04-24 18:42:00,45.0,23.0,29.92,West,263,1.0,-999.0,41,-99.99,,,-99.99,,2013-04-24 22:42:00,
2013-04-24 18:52:00,46.0,23.0,29.91,WSW,241,2.0,-999.0,40,-99.99,,,-99.99,,2013-04-24 22:52:00,
2013-04-24 19:02:00,45.0,22.0,29.91,West,260,1.0,-999.0,39,-99.99,,,-99.99,,2013-04-24 23:02:00,
2013-04-24 19:12:00,45.0,22.0,29.91,West,260,1.0,-999.0,39,-99.99,,,-99.99,,2013-04-24 23:12:00,
2013-04-24 19:21:00,45.0,22.0,29.91,NW,308,2.0,-999.0,39,-99.99,,,-99.99,,2013-04-24 23:21:00,
2013-04-24 19:32:00,45.0,21.0,29.91,SW,220,2.0,-999.0,38,-99.99,,,-99.99,,2013-04-24 23:32:00,
2013-04-24 19:42:00,45.0,21.0,29.91,SW,220,2.0,-999.0,38,-99.99,,,-99.99,,2013-04-24 23:42:00,
2013-04-24 19:52:00,44.0,21.0,29.91,SSW,207,0.0,-999.0,40,-99.99,,,-99.99,,2013-04-24 23:52:00,
2013-04-24 20:01:00,43.0,23.0,29.91,North,11,1.0,-999.0,45,-99.99,,,-99.99,,2013-04-25 00:01:00,
2013-04-24 20:12:00,43.0,23.0,29.91,North,11,1.0,-999.0,45,-99.99,,,-99.99,,2013-04-25 00:12:00,
2013-04-24 20:22:00,41.0,22.0,29.91,East,80,1.0,-999.0,47,-99.99,,,-99.99,,2013-04-25 00:22:00,
2013-04-24 20:32:00,40.0,22.0,29.91,NE,56,2.0,-999.0,48,-99.99,,,-99.99,,2013-04-25 00:32:00,
2013-04-24 20:42:00,40.0,22.0,29.91,NE,56,2.0,-999.0,48,-99.99,,,-99.99,,2013-04-25 00:42:00,
2013-04-24 20:52:00,39.0,22.0,29.91,ENE,59,1.0,-999.0,50,-99.99,,,-99.99,,2013-04-25 00:52:00,
2013-04-24 21:01:00,38.0,22.0,29.91,NE,53,1.0,-999.0,51,-99.99,,,-99.99,,2013-04-25 01:01:00,
2013-04-24 21:11:00,38.0,22.0,29.91,NE,53,1.0,-999.0,51,-99.99,,,-99.99,,2013-04-25 01:11:00,
2013-04-24 21:23:00,37.0,21.0,29.92,NE,55,1.0,-999.0,53,-99.99,,,-99.99,,2013-04-25 01:23:00,
2013-04-24 21:32:00,37.0,21.0,29.93,NE,50,1.0,-999.0,53,-99.99,,,-99.99,,2013-04-25 01:32:00,
2013-04-24 21:42:00,37.0,21.0,29.93,NE,50,1.0,-999.0,53,-99.99,,,-99.99,,2013-04-25 01:42:00,
2013-04-24 21:52:00,37.0,22.0,29.94,NNE,12,1.0,-999.0,54,-99.99,,,-99.99,,2013-04-25 01:52:00,
2013-04-24 22:02:00,37.0,22.0,29.94,NNE,13,0.0,-999.0,55,-99.99,,,-99.99,,2013-04-25 02:02:00,
2013-04-24 22:11:00,37.0,22.0,29.94,NNE,13,0.0,-999.0,55,-99.99,,,-99.99,,2013-04-25 02:11:00,
2013-04-24 22:22:00,36.0,21.0,29.94,ENE,59,1.0,-999.0,55,-99.99,,,-99.99,,2013-04-25 02:22:00,
2013-04-24 22:32:00,36.0,21.0,29.94,ENE,59,0.0,-999.0,55,-99.99,,,-99.99,,2013-04-25 02:32:00,
2013-04-24 22:42:00,36.0,21.0,29.94,ENE,59,0.0,-999.0,55,-99.99,,,-99.99,,2013-04-25 02:42:00,
2013-04-24 22:51:00,36.0,21.0,29.94,ENE,59,0.0,-999.0,55,-99.99,,,-99.99,,2013-04-25 02:51:00,
2013-04-24 23:02:00,34.0,21.0,29.93,ENE,59,0.0,-999.0,58,-99.99,,,-99.99,,2013-04-25 03:02:00,
2013-04-24 23:11:00,34.0,21.0,29.93,ENE,59,0.0,-999.0,58,-99.99,,,-99.99,,2013-04-25 03:11:00,
2013-04-24 23:22:00,34.0,22.0,29.93,ENE,59,0.0,-999.0,60,-99.99,,,-99.99,,2013-04-25 03:22:00,
2013-04-24 23:33:00,33.0,23.0,29.92,ENE,59,0.0,-999.0,65,-99.99,,,-99.99,,2013-04-25 03:33:00,
2013-04-24 23:42:00,33.0,23.0,29.92,ENE,59,0.0,-999.0,65,-99.99,,,-99.99,,2013-04-25 03:42:00,
2013-04-24 23:52:00,32.0,23.0,29.92,ENE,59,0.0,-999.0,69,-99.99,,,-99.99,,2013-04-25 03:52:00,